Theta_e
319 319 320 320 320 320 320 321 321 321 321 322 322 322 322 322 323 323 323 323 323 324 324 324 325 325 325 325 325 325 323 322 321 316 314 315 329 331 332 336 336 334 328 320 316 313 310 312 311 313 313 313 314 310 318 313 314 312 304 302 299 301 301 304 303 303 306 303 304 305 306 305 302 306 307 307 306 306 307 307 309 311 311 312 313 317 318 318
319 319 319 320 320 320 320 320 321 320 320 321 321 322 322 322 322 322 323 322 323 323 323 324 324 325 325 325 325 325 324 327 317 315 315 331 334 333 335 337 336 332 328 315 313 312 310 310 311 311 312 308 317 309 313 310 314 306 304 303 299 303 304 308 306 305 304 303 305 305 306 305 304 305 307 304 304 305 305 307 309 309 310 312 313 313 317 317
319 319 319 319 319 320 320 320 321 320 320 320 320 321 322 321 321 321 322 322 322 323 323 323 324 324 324 325 324 324 324 323 321 314 314 335 334 336 338 337 332 330 320 315 314 313 311 311 312 310 310 308 311 307 310 309 310 308 304 300 302 307 306 308 308 305 306 306 304 304 305 305 306 306 308 303 303 305 303 304 306 307 307 310 312 313 313 314
318 318 318 318 319 319 319 320 320 320 320 320 320 320 321 321 321 321 321 322 322 322 322 323 323 324 324 324 324 324 327 323 309 312 321 334 335 337 340 337 332 328 321 317 316 315 313 312 311 310 309 306 308 310 307 310 306 308 305 301 303 306 305 307 307 308 307 307 305 304 305 304 306 307 306 304 302 303 305 307 306 306 308 310 311 312 313 313
318 318 318 318 318 319 319 319 320 320 320 320 320 320 320 321 321 321 321 322 322 322 322 323 323 323 324 324 321 325 322 308 307 318 330 332 338 338 340 337 333 322 319 316 315 314 312 310 309 309 307 304 306 307 306 308 311 309 305 307 306 306 304 308 308 307 307 307 305 304 303 303 308 306 304 304 300 301 304 307 308 308 309 309 309 311 312 313
318 318 318 318 318 318 319 319 319 320 320 320 320 320 320 320 321 321 321 321 322 322 322 323 323 323 323 323 324 326 315 296 310 319 332 337 338 339 337 335 330 321 317 314 313 312 310 309 308 305 305 303 303 302 306 307 311 301 304 305 307 307 304 307 307 306 305 305 304 303 305 307 305 304 306 305 303 305 309 309 309 310 310 311 311 311 311 311
318 318 318 318 318 318 319 319 319 320 321 320 320 320 320 321 320 321 320 321 321 322 321 322 322 322 323 322 324 316 309 308 315 333 332 338 339 337 335 331 327 319 315 312 312 310 309 308 307 305 304 303 304 303 305 306 310 305 300 304 304 306 306 308 306 306 306 305 304 306 307 304 304 301 306 304 307 309 310 310 310 310 311 311 310 310 310 310
318 317 318 318 317 318 319 319 319 320 320 320 320 320 321 321 321 320 320 320 321 321 322 321 322 322 322 323 317 311 309 307 316 331 333 338 336 332 328 323 317 317 313 312 311 309 309 306 305 306 303 301 303 304 306 305 306 303 301 304 305 306 306 307 306 306 306 306 307 306 303 303 305 304 305 303 307 309 310 311 310 310 311 310 310 310 310 310
318 318 318 318 319 319 318 318 319 320 320 320 321 321 321 321 321 320 320 320 321 320 321 321 321 322 320 319 312 305 304 316 317 335 339 335 331 327 322 317 317 315 313 313 313 312 310 307 307 307 301 302 305 303 304 302 299 303 304 305 305 305 306 306 305 305 306 305 305 303 302 304 305 306 303 305 306 308 309 309 309 309 309 309 309 309 309 309
319 319 319 320 319 318 318 318 319 320 320 320 321 321 321 321 320 320 320 320 320 320 320 321 321 320 317 315 310 302 318 313 329 335 336 330 325 322 319 319 316 315 312 312 313 311 309 308 308 310 308 305 306 302 304 303 300 304 303 303 302 303 303 304 303 303 304 304 305 301 301 302 305 303 298 305 307 308 308 308 309 308 307 307 308 308 309 308
319 320 320 318 318 318 318 318 318 319 320 320 320 321 321 320 320 320 320 320 320 320 320 320 322 316 316 313 308 305 316 323 328 331 329 324 321 318 317 319 316 314 313 314 311 312 312 311 313 310 306 303 304 303 303 303 304 303 302 301 301 302 303 303 303 303 304 302 304 303 301 303 303 302 300 304 307 308 306 307 307 307 307 307 308 308 310 309
318 320 318 318 318 318 318 318 318 319 319 320 320 320 320 320 320 320 319 319 319 320 320 320 321 320 315 309 307 311 312 325 328 327 325 322 320 318 318 317 316 317 314 311 312 316 315 313 312 307 301 306 300 303 302 304 302 302 301 296 299 301 300 303 302 303 304 302 303 303 299 298 299 298 303 306 307 307 306 306 306 306 306 307 308 308 308 309
318 318 318 318 318 318 318 318 319 319 320 320 320 320 320 320 319 319 319 319 319 320 320 321 319 320 318 304 310 316 318 322 325 322 321 322 317 317 317 317 317 315 315 314 312 317 315 313 311 306 308 305 303 299 301 302 302 301 300 298 297 298 298 303 305 304 302 302 302 301 290 296 299 302 304 307 307 307 305 305 305 306 306 307 307 307 308 309
319 319 319 319 319 318 318 319 319 320 320 320 320 320 320 319 319 319 319 318 320 320 319 321 322 318 312 304 310 315 315 323 322 320 318 320 317 316 316 316 315 313 315 312 312 313 312 311 311 308 308 303 301 307 302 302 302 297 300 300 295 294 295 303 302 302 298 302 301 301 292 295 299 302 305 307 306 305 303 304 304 305 305 306 307 307 307 308
320 320 320 320 320 319 319 319 320 320 320 320 320 320 319 319 319 318 319 319 318 319 320 320 320 317 304 305 310 314 317 316 313 317 318 314 313 312 313 314 313 313 311 311 312 310 310 311 309 304 302 306 305 301 298 298 300 300 295 293 297 295 297 302 303 301 298 300 301 299 292 295 299 302 305 306 305 304 302 303 303 304 305 305 306 306 307 307
320 321 321 321 321 320 320 320 321 321 321 320 320 319 319 318 317 318 319 320 318 319 320 318 315 313 305 302 312 317 314 309 310 315 316 315 315 311 313 312 312 311 310 308 310 309 309 309 304 303 303 303 300 298 296 296 297 299 296 294 294 297 297 299 303 304 303 300 299 299 294 297 298 303 304 305 305 304 303 303 304 304 305 305 306 306 307 307
320 320 321 320 321 321 320 320 320 321 321 321 320 321 317 317 318 319 320 319 319 320 322 312 311 308 300 308 309 309 307 314 310 316 312 314 314 315 311 309 308 308 309 308 309 308 307 304 305 302 303 300 301 299 294 293 293 296 299 295 298 295 297 295 301 303 305 301 297 298 294 295 298 301 303 304 304 303 302 302 303 304 304 305 306 306 306 307
320 321 321 320 321 321 321 320 321 321 321 321 319 319 319 319 319 318 318 319 322 320 319 315 312 309 304 308 303 306 308 308 314 311 313 312 314 311 310 307 307 307 307 305 307 303 304 301 303 298 300 299 298 297 292 290 295 296 297 296 297 299 298 296 296 301 301 300 297 299 297 297 300 302 303 304 305 303 302 302 303 303 304 305 305 306 306 307
321 321 321 321 322 321 321 321 321 321 321 321 321 314 317 317 322 322 314 314 313 309 303 303 303 299 300 304 308 307 312 310 312 313 309 311 312 312 310 310 309 305 303 301 301 303 302 302 301 297 295 297 297 297 295 297 298 297 297 296 296 294 295 296 299 303 302 299 297 298 296 297 299 300 302 303 304 303 303 303 303 304 305 305 306 307 307 307
321 321 322 322 321 321 321 321 322 321 321 320 322 317 315 316 314 307 309 309 306 308 309 311 308 307 310 312 311 310 312 313 308 310 312 312 309 307 307 307 308 305 303 299 301 302 304 297 294 294 297 300 302 301 300 300 300 299 299 297 295 295 296 299 300 302 303 299 297 297 297 297 298 299 300 302 303 303 302 302 303 304 305 306 307 306 305 306
321 322 322 321 321 321 322 322 322 321 320 322 319 317 311 310 306 306 309 312 316 316 314 314 313 312 311 309 310 310 306 306 308 309 311 312 311 307 303 305 302 299 301 303 302 301 301 296 296 299 300 302 302 303 302 300 300 298 296 295 294 296 294 298 299 302 303 298 296 297 296 296 297 299 300 302 302 301 302 302 303 304 305 306 305 305 306 305
321 322 322 321 321 322 322 322 321 321 320 320 320 314 313 310 309 311 309 306 314 316 315 314 314 309 314 311 309 311 308 305 307 309 311 311 306 303 303 302 301 299 303 302 300 297 295 294 298 301 303 303 303 301 300 298 297 297 295 295 294 295 298 299 300 301 300 296 294 297 294 295 297 299 301 301 302 303 304 305 305 305 305 305 305 305 305 306
321 321 321 322 321 322 322 322 321 320 321 320 317 314 313 311 312 312 309 306 304 313 312 311 308 308 309 312 308 309 304 303 304 307 306 310 304 303 304 300 300 300 301 300 297 297 294 298 301 303 303 301 300 300 298 297 297 295 295 293 292 296 294 292 298 297 297 296 294 296 294 295 298 300 302 303 303 303 306 306 306 307 303 303 303 304 305 304
321 321 321 321 321 322 322 322 321 322 320 316 316 314 313 313 312 310 307 303 304 309 310 309 308 308 307 305 307 306 305 306 306 305 309 308 303 306 303 302 300 300 298 300 299 297 297 302 302 302 301 300 297 298 297 295 294 297 297 295 294 295 296 295 295 297 298 298 299 296 294 296 300 298 299 301 304 303 304 305 304 304 305 306 306 305 304 303
321 320 320 321 320 321 321 320 321 320 317 315 316 314 313 314 313 313 306 304 304 304 308 308 307 308 305 311 309 303 306 306 305 304 309 308 305 302 302 304 301 298 299 301 300 298 297 302 301 299 299 298 297 295 296 297 293 295 298 297 297 297 296 296 296 294 293 293 294 294 288 291 297 298 299 302 303 303 306 303 302 302 303 303 303 303 303 303
320 320 320 320 320 321 321 319 320 319 319 317 316 315 313 313 314 311 305 299 296 305 304 301 310 300 310 302 306 305 304 300 304 306 308 308 307 303 301 299 301 297 299 299 298 298 298 301 300 299 299 298 297 295 298 298 294 293 295 300 299 297 296 295 294 294 288 287 294 296 287 285 296 296 299 301 301 301 304 301 301 301 302 302 301 300 300 301
319 319 320 320 321 321 319 315 319 320 316 315 316 315 314 313 314 310 301 298 294 305 301 301 302 302 305 302 303 304 295 297 304 306 306 307 303 308 298 299 298 299 299 300 296 293 298 298 297 297 296 296 296 294 298 298 294 292 298 299 298 296 294 295 294 292 290 295 296 295 293 287 288 295 301 300 299 301 299 299 300 300 300 299 299 299 299 299
315 316 317 320 321 319 322 322 320 318 316 317 317 314 313 312 312 310 299 287 287 306 299 299 302 307 306 301 303 298 296 298 298 300 303 306 304 302 299 298 298 298 297 297 288 300 297 296 296 296 296 295 294 297 303 300 296 295 296 297 295 295 294 294 293 291 292 290 287 293 295 288 289 297 300 300 297 298 296 297 298 299 299 298 298 299 299 298
313 313 314 317 320 319 323 322 320 317 316 316 316 314 312 312 309 302 296 284 302 301 307 298 307 303 301 301 299 299 298 299 296 299 305 304 305 301 297 299 299 298 299 298 293 298 298 299 300 299 297 294 299 298 299 300 294 299 296 297 296 296 296 294 291 291 291 288 285 291 293 287 289 297 298 298 297 295 295 296 297 299 298 298 298 298 297 297
311 312 314 318 319 318 318 318 317 314 315 315 314 311 310 307 303 294 290 283 303 294 300 301 299 298 300 297 297 298 296 298 299 300 302 301 302 303 299 299 297 297 296 298 297 298 297 296 298 297 297 299 297 295 297 299 297 296 298 295 295 295 294 294 292 291 288 284 288 294 294 292 286 294 297 297 297 296 295 296 297 298 297 297 297 296 296 295
310 310 312 316 319 319 319 315 321 313 313 312 310 310 310 307 296 290 283 294 300 301 301 300 297 300 297 297 296 296 297 297 297 299 297 300 298 300 299 296 299 296 294 294 293 297 297 296 295 298 300 298 299 296 295 296 297 297 293 292 292 292 293 290 289 291 285 284 289 292 294 294 284 291 297 297 297 298 297 296 296 296 296 296 295 295 295 294
308 309 310 314 316 316 315 313 312 311 310 310 311 311 309 293 298 286 287 302 290 299 299 297 297 298 297 298 296 296 295 294 296 296 297 298 297 296 296 294 298 290 290 292 292 296 292 295 298 300 297 298 296 294 295 295 295 294 293 291 287 286 287 284 288 283 285 285 287 290 292 288 289 293 297 300 299 298 298 298 296 296 295 294 294 294 294 294
307 308 308 310 312 316 317 314 312 310 311 311 313 311 299 290 282 293 293 297 291 301 296 300 296 295 297 296 297 297 296 295 296 295 298 298 296 298 301 298 301 295 286 292 291 291 292 299 298 298 297 298 298 291 293 290 292 292 290 289 286 282 282 279 283 286 285 289 288 289 293 286 292 294 300 299 300 297 297 298 298 297 296 294 294 294 293 293
306 307 310 312 314 317 314 312 312 312 312 312 311 303 296 286 285 296 295 297 297 299 299 296 293 295 296 294 298 299 295 299 297 296 296 297 297 294 297 300 299 295 294 291 288 290 285 287 294 296 294 299 297 297 298 296 293 293 297 294 289 287 282 278 281 279 281 284 289 290 287 286 286 292 300 302 299 297 297 297 297 296 295 294 293 293 292 292
306 306 309 311 313 315 315 314 313 314 315 312 304 297 287 286 291 291 292 296 300 298 297 299 297 296 296 298 300 299 298 294 298 296 295 294 293 295 295 296 299 298 297 287 294 291 290 289 296 300 298 298 297 300 302 298 295 295 295 295 289 288 291 283 286 285 285 285 285 287 286 292 292 300 300 301 298 296 296 295 295 293 293 293 292 291 291 290
305 307 310 307 309 313 315 314 314 315 313 306 298 291 287 292 290 297 294 302 300 297 296 297 298 294 294 294 299 298 302 295 296 295 295 295 297 294 298 298 298 297 293 288 293 286 290 287 299 298 296 297 298 301 298 299 287 292 292 287 290 296 293 287 287 288 286 285 282 289 288 292 298 298 300 301 296 294 294 294 293 292 292 292 290 290 289 290
304 307 303 306 307 314 315 314 314 312 310 304 295 288 295 296 301 301 302 298 298 300 296 290 292 291 291 291 293 296 297 297 296 295 291 298 292 297 297 298 303 298 298 296 292 296 287 288 298 296 294 298 295 297 298 297 299 292 286 291 293 298 295 289 282 285 284 280 281 287 284 287 288 284 294 294 293 292 293 292 292 291 291 289 289 288 288 288
303 302 304 304 307 315 316 314 314 311 307 300 292 293 301 296 303 301 302 299 298 300 295 293 293 297 291 291 291 295 297 293 294 294 291 295 289 300 295 295 301 299 298 300 293 294 296 286 293 298 299 295 295 295 294 298 298 293 291 296 289 285 284 288 285 277 278 278 280 284 287 287 288 288 293 293 291 291 291 291 290 290 289 288 287 287 288 288
302 302 299 305 311 315 315 315 313 308 302 294 292 291 297 299 303 302 302 301 303 299 293 295 292 296 295 292 293 295 296 290 294 293 289 292 288 298 296 298 296 296 297 297 294 295 297 286 289 297 296 295 295 294 287 292 295 295 295 292 297 290 286 284 286 285 284 278 279 279 285 282 292 292 295 295 294 292 291 290 289 288 288 288 288 287 287 287
300 297 297 310 312 315 315 314 308 304 297 288 292 293 301 298 301 303 302 302 299 297 295 294 297 293 294 294 295 291 296 294 293 292 292 294 291 298 296 299 296 297 296 297 295 297 289 295 283 292 293 295 288 293 289 292 289 288 288 288 291 288 292 291 290 286 283 280 280 279 278 284 291 296 295 294 294 294 292 289 288 287 286 286 286 286 286 286
304 300 299 311 312 315 314 308 301 296 292 295 297 296 299 298 301 302 304 305 302 304 299 297 295 293 294 293 293 297 294 295 294 292 293 293 293 288 299 296 299 296 298 297 296 296 289 290 284 287 289 288 291 297 296 295 295 292 291 288 290 287 285 281 279 290 286 283 280 279 277 286 293 294 295 293 293 292 292 288 287 286 286 286 287 286 286 286
298 290 297 311 312 313 307 296 296 299 295 292 293 297 296 303 300 301 302 303 302 300 302 297 299 298 296 295 295 295 294 293 294 293 294 291 296 295 297 298 298 299 296 292 294 297 295 291 288 285 288 289 293 297 300 299 298 296 294 290 293 291 290 284 278 282 286 286 287 284 281 284 291 292 292 292 291 290 290 289 287 286 286 286 286 285 286 285
297 292 304 309 313 310 303 296 298 297 294 297 303 301 303 300 299 302 299 301 299 301 299 297 297 296 298 296 296 294 295 291 293 291 294 294 295 297 297 298 299 299 297 294 297 291 293 287 285 286 290 293 295 297 298 298 297 294 294 295 293 288 290 287 285 285 281 282 281 282 279 284 292 290 289 289 289 289 290 290 288 287 287 286 286 286 286 286
298 300 301 307 313 310 300 289 290 292 295 299 299 298 303 300 300 298 297 299 298 297 297 297 298 299 295 299 295 292 296 286 292 293 292 295 293 298 297 296 298 292 294 293 291 296 287 289 287 281 282 284 287 290 292 294 294 289 288 290 290 291 290 289 287 288 281 282 283 280 275 283 290 288 288 288 289 288 288 288 289 287 287 286 286 286 286 285
298 299 299 302 307 305 294 296 294 293 294 294 295 294 295 298 301 300 299 298 300 299 297 296 298 298 296 298 295 295 296 293 287 294 294 293 293 297 295 295 296 294 295 295 295 298 289 287 285 279 275 274 274 276 279 283 285 288 287 289 290 289 288 286 282 284 279 283 285 280 280 286 288 289 288 288 288 288 288 288 288 288 287 286 285 286 285 286
292 285 297 297 300 299 300 301 298 296 293 293 292 294 296 293 298 301 301 298 300 299 299 298 299 297 295 295 291 292 292 295 291 288 292 290 293 293 289 293 290 292 292 293 289 294 288 288 287 285 282 279 282 284 289 289 287 283 285 287 287 289 289 288 285 281 277 280 280 282 283 283 286 288 289 289 288 289 286 286 285 286 285 286 286 286 286 285
295 288 292 288 297 296 295 298 297 297 293 296 290 294 292 293 295 297 302 294 299 297 297 297 295 293 292 292 290 290 292 291 293 290 290 291 293 294 294 294 293 291 289 289 293 289 287 285 286 286 285 285 287 286 288 288 284 285 284 285 287 286 287 285 282 279 285 280 275 283 284 282 283 287 288 289 289 289 289 286 286 285 284 284 285 285 285 284
285 290 296 297 293 288 289 290 295 295 296 297 292 295 292 291 292 290 297 298 298 299 293 294 295 294 293 291 291 286 289 289 289 288 292 291 291 292 291 292 291 291 291 291 294 290 285 281 284 285 283 285 286 286 288 287 286 285 285 284 284 285 285 282 282 284 283 279 276 282 284 281 284 286 288 289 290 290 288 287 287 287 287 286 285 285 285 285
291 291 292 295 290 293 293 293 296 294 293 294 292 294 291 291 289 292 293 293 295 293 296 286 290 292 292 292 290 287 288 283 284 288 287 286 286 286 285 288 290 290 291 289 290 290 286 282 284 284 283 284 285 285 286 285 284 284 283 284 284 284 283 283 283 284 283 281 283 283 283 282 285 286 288 289 290 288 287 287 286 285 285 285 285 285 285 285
286 288 286 291 292 290 291 292 292 292 289 292 288 290 291 290 289 292 293 293 288 290 295 290 289 288 288 288 289 286 288 288 286 283 287 285 284 286 285 286 284 288 288 286 288 288 286 280 285 282 280 280 283 285 285 284 282 280 282 283 283 283 283 283 283 283 284 282 283 283 282 281 287 289 287 287 288 287 286 285 284 284 285 284 284 284 285 285
292 292 294 289 287 288 288 289 290 289 288 290 288 290 291 291 290 293 291 291 291 289 291 288 289 287 287 287 287 287 289 286 287 286 287 286 282 286 284 285 288 283 285 284 286 285 286 281 285 281 277 277 281 281 282 282 281 280 279 280 281 281 279 281 280 283 281 279 281 281 279 280 285 285 286 286 285 284 283 283 283 283 283 283 282 282 283 284
292 294 293 291 287 290 285 288 289 289 285 290 290 290 290 289 290 292 287 290 288 290 291 291 290 289 287 286 284 287 290 289 289 290 290 289 289 288 288 287 287 284 284 284 286 283 283 281 279 279 275 274 279 280 279 279 277 274 275 278 280 281 282 282 283 284 283 283 279 277 278 284 282 286 284 284 281 280 282 282 282 282 282 282 283 283 284 284
Wind_Speed
6 6 6 6 6 6 6 6 7 8 8 8 8 8 8 9 10 10 10 10 11 11 11 12 12 12 12 11 11 10 11 5 5 6 6 5 8 9 8 9 11 12 10 7 7 7 7 6 6 5 5 4 3 5 4 4 2 4 5 6 8 7 9 5 6 6 5 7 10 7 2 6 10 4 4 2 9 12 14 15 15 13 15 16 14 5 6 8
6 6 7 6 7 7 6 6 7 7 8 9 9 9 8 8 9 10 10 10 10 12 12 12 12 12 12 12 12 11 9 6 8 9 14 5 9 9 7 9 12 12 11 8 9 9 6 7 6 7 5 6 4 2 4 2 5 6 6 7 9 7 7 5 7 9 10 9 9 10 7 8 12 9 6 8 11 11 14 15 14 15 16 17 16 14 7 7
6 6 6 6 7 7 8 7 8 8 8 9 9 9 10 9 9 10 11 10 10 11 12 12 12 13 13 12 12 11 6 6 7 12 6 9 10 8 7 10 13 11 11 9 8 8 6 4 6 6 6 7 6 5 5 4 6 8 8 9 10 9 12 10 8 11 10 11 12 11 11 11 10 10 6 10 14 13 15 14 14 15 14 12 14 13 14 10
5 6 6 7 7 8 8 8 9 9 9 10 10 10 10 10 10 10 11 11 11 11 11 12 12 12 12 13 11 7 5 8 9 2 5 4 7 7 7 11 12 12 9 5 6 7 3 2 5 7 6 6 4 5 5 5 3 4 8 9 8 8 8 8 8 9 11 10 11 12 12 13 12 11 9 9 12 13 15 15 17 18 14 12 11 10 7 9
6 6 7 7 7 8 9 9 9 9 10 10 10 10 10 10 11 11 11 11 11 11 11 12 12 12 12 12 12 4 6 10 2 4 7 5 5 7 8 11 11 11 8 3 3 4 5 6 5 7 6 7 8 6 10 8 9 5 10 12 13 13 13 10 11 11 7 3 9 13 13 13 8 6 11 13 14 12 11 12 13 16 16 15 14 12 10 7
6 7 7 7 8 9 9 9 9 9 10 10 10 11 11 11 11 11 11 11 11 11 11 11 11 12 12 12 8 4 3 5 2 2 4 7 7 7 9 11 12 10 6 6 7 5 7 6 7 6 6 8 10 9 6 9 7 9 11 14 15 15 16 11 11 2 1 9 11 13 11 10 10 13 12 13 17 18 17 16 17 19 19 17 15 13 11 11
6 7 7 8 8 9 9 9 9 10 10 10 11 11 11 12 11 12 12 12 11 11 11 10 11 11 13 13 4 5 6 9 4 4 6 6 7 8 9 9 8 8 8 8 8 7 9 7 9 8 8 10 11 12 12 7 6 9 14 12 15 10 13 12 12 1 6 10 15 13 13 14 14 18 13 15 16 20 21 18 19 20 19 17 16 14 14 14
6 7 7 7 8 9 9 10 9 10 11 11 11 11 12 12 12 12 12 13 12 12 11 11 10 10 11 5 3 5 7 10 3 3 6 7 8 10 10 8 10 8 10 11 9 9 7 9 9 7 9 10 7 6 5 8 10 11 13 12 13 11 10 11 11 12 10 12 13 13 15 19 16 16 16 23 19 18 19 19 19 19 18 16 15 15 14 14
3 6 6 6 7 8 9 9 10 10 11 11 11 12 13 12 13 13 13 13 12 12 12 10 11 9 7 4 4 7 10 3 3 6 9 9 9 11 11 8 11 11 9 9 9 7 6 8 10 8 8 8 6 9 7 6 11 12 16 14 12 13 11 10 12 13 12 10 10 11 16 19 18 17 21 25 22 20 20 21 20 17 15 14 14 14 14 14
2 5 7 7 7 8 9 9 10 10 11 12 12 13 13 13 13 13 13 13 13 12 11 10 10 8 6 4 5 9 1 2 2 4 5 7 9 10 11 5 12 11 9 10 8 8 9 6 6 2 7 12 12 11 8 9 10 5 8 9 11 13 15 15 17 17 15 15 12 12 15 17 15 8 14 12 10 6 8 11 12 12 13 14 13 12 12 13
5 6 6 6 7 8 8 9 9 10 11 12 12 13 13 13 14 14 14 14 13 12 10 11 3 5 5 4 8 11 3 2 1 4 5 6 9 9 9 3 9 9 10 6 8 9 8 8 2 1 2 8 2 9 7 7 5 9 9 12 16 17 17 18 17 19 12 13 14 15 16 16 16 11 17 18 15 10 10 12 13 13 14 14 15 14 12 12
5 5 4 6 6 8 9 9 10 10 12 13 13 13 13 14 14 14 14 13 12 11 10 8 3 4 5 8 10 7 4 4 1 4 5 5 4 3 6 1 6 7 8 7 7 8 2 3 4 5 6 7 8 6 8 3 7 8 7 11 14 15 15 18 18 18 14 13 2 3 9 12 14 13 20 20 18 15 15 14 12 14 15 15 15 14 13 12
4 4 4 5 7 8 9 9 10 12 13 13 14 14 14 14 14 14 12 11 8 6 4 2 3 4 4 9 8 4 3 3 4 5 4 4 6 4 3 3 2 2 4 5 4 0 1 3 6 10 11 8 10 8 3 4 1 7 11 12 14 13 14 16 11 9 7 5 8 4 9 5 9 15 16 17 13 11 9 10 13 14 14 14 14 13 14 14
5 8 4 5 5 8 8 10 12 13 13 14 14 15 15 15 14 10 8 8 7 6 6 6 4 3 5 9 3 2 1 1 5 5 4 5 5 3 2 2 1 1 3 4 3 3 2 2 6 10 4 6 8 7 7 6 5 8 10 5 9 11 12 8 5 5 6 7 9 7 12 10 13 15 15 10 2 6 9 12 16 17 17 15 13 14 15 17
7 5 7 6 5 6 7 9 11 12 14 14 14 15 15 13 7 5 5 5 4 4 5 3 4 4 5 5 5 3 5 1 4 2 4 6 5 4 4 4 3 1 1 2 1 0 1 4 5 6 7 5 8 11 10 9 8 8 8 9 8 10 8 9 5 10 9 5 8 9 10 9 7 6 7 7 2 6 12 14 17 17 17 17 14 15 16 16
8 8 8 6 8 8 8 7 10 13 14 15 15 15 10 4 3 3 3 5 4 8 4 5 4 4 6 11 3 3 3 4 4 4 1 2 4 3 5 5 4 3 4 2 1 1 3 5 7 4 7 3 8 9 9 8 8 10 11 12 11 11 12 11 7 6 11 2 9 12 12 12 13 11 11 12 16 17 16 17 18 20 20 19 15 13 13 12
8 9 6 6 9 10 9 9 11 11 12 12 14 9 3 1 2 3 5 4 6 3 3 1 5 4 6 3 3 3 2 3 0 2 2 1 3 4 7 6 4 5 4 5 3 4 5 7 3 2 6 9 8 7 7 8 9 9 9 12 10 13 12 10 7 11 4 6 8 13 12 13 15 14 15 17 18 17 16 18 20 19 16 16 14 13 13 12
9 8 8 8 9 8 8 10 11 12 12 14 14 6 2 3 3 4 6 3 2 2 3 3 4 2 9 4 7 2 3 4 1 3 2 1 4 5 5 4 4 6 7 6 4 7 6 6 4 7 6 9 9 7 7 10 8 11 12 13 13 12 12 15 13 7 6 9 13 13 17 17 17 16 14 15 15 14 15 19 19 17 16 16 14 12 11 9
9 7 8 8 7 6 8 10 12 13 14 18 10 1 1 2 4 5 3 4 3 3 4 5 5 7 4 3 3 6 2 3 3 3 4 6 3 3 2 0 7 9 6 5 5 9 5 4 3 6 9 10 10 12 12 15 15 16 16 13 14 14 13 13 14 15 15 18 16 17 17 17 16 15 15 15 15 17 18 18 18 18 17 16 11 9 5 5
9 8 8 9 8 7 8 10 11 13 17 12 2 2 3 4 4 3 5 6 7 8 9 4 8 11 14 12 1 3 2 3 4 2 5 2 7 7 6 6 5 6 6 5 7 7 6 8 8 8 11 11 12 14 17 17 17 18 15 13 15 16 16 14 17 14 13 15 12 13 16 18 17 15 16 17 17 17 18 16 17 18 15 11 7 4 6 4
9 9 9 9 8 8 8 10 9 13 15 9 7 5 2 5 5 3 4 9 12 11 11 11 11 12 12 3 5 3 3 5 4 4 4 3 4 8 7 7 7 6 9 6 5 3 3 9 10 11 14 14 15 13 12 13 13 14 14 15 15 13 16 13 17 14 15 12 12 12 16 16 17 18 21 20 16 16 17 17 18 18 13 3 8 3 3 3
9 9 8 8 8 9 8 8 9 12 16 7 6 3 2 4 3 2 4 6 4 8 11 14 6 10 11 3 4 2 3 7 6 6 3 5 6 8 7 7 7 7 6 6 3 3 7 10 11 14 14 14 14 9 12 12 15 14 12 12 13 12 15 17 17 9 5 4 12 13 18 16 19 21 20 18 13 11 12 13 15 10 3 3 4 2 3 7
8 8 8 7 8 8 8 7 7 9 6 3 1 1 2 2 1 2 3 6 11 9 9 10 11 12 11 3 2 5 8 10 9 8 8 6 7 7 5 6 7 8 6 9 8 8 9 7 14 14 12 13 13 11 9 12 12 10 10 10 12 11 12 11 7 2 3 4 12 14 17 14 18 19 14 9 9 9 10 14 7 5 4 2 5 6 8 9
7 7 7 6 6 7 7 5 7 7 1 3 3 3 2 1 1 1 3 5 6 6 5 2 4 5 4 3 3 4 9 6 7 7 7 7 6 4 7 10 10 9 10 11 14 12 12 8 6 4 7 10 12 11 11 10 11 9 11 11 12 13 12 13 13 14 16 15 13 11 12 11 6 3 6 8 7 6 11 1 9 7 6 9 10 12 12 12
6 6 6 5 5 4 5 4 4 1 2 3 2 2 1 1 1 2 4 6 5 6 4 2 1 1 3 2 2 4 5 5 2 6 3 2 6 5 6 1 5 10 11 11 12 13 13 13 5 3 5 6 8 10 13 11 10 10 12 14 16 15 16 14 15 14 9 8 7 10 10 4 2 1 4 5 7 12 11 10 10 10 7 10 12 12 12 12
5 5 5 4 5 5 1 3 3 2 3 1 4 3 1 1 1 2 4 4 10 1 0 5 2 1 2 3 2 2 1 5 4 2 2 1 5 4 2 5 4 5 2 4 7 6 7 5 1 6 8 8 8 10 13 9 10 9 6 3 6 8 10 12 11 8 7 6 1 5 5 10 4 12 13 10 9 14 7 10 8 9 11 10 12 12 10 10
3 3 2 4 5 4 3 2 3 1 4 4 3 4 2 2 1 3 4 4 8 4 2 3 2 1 2 2 1 3 4 4 3 3 3 3 2 1 5 3 3 3 1 1 2 5 6 5 3 2 5 7 6 8 10 11 8 9 4 4 5 8 9 8 6 6 10 9 12 9 8 10 12 7 9 6 12 9 10 8 10 12 13 13 13 12 12 12
5 4 2 3 6 8 5 2 2 3 2 4 4 3 3 2 1 3 3 5 3 4 2 3 2 1 2 3 2 3 4 0 3 3 3 2 3 4 5 7 4 2 6 4 7 3 4 5 5 6 7 6 9 10 1 6 8 3 2 5 5 5 7 5 6 7 8 9 10 3 8 6 9 6 2 7 10 3 9 11 11 12 13 13 12 12 12 12
7 6 5 1 5 5 4 3 2 4 3 4 4 4 2 3 3 3 3 6 2 0 2 3 1 2 4 2 4 2 1 2 3 3 2 2 2 3 4 6 5 7 5 9 8 2 2 0 6 6 5 7 8 3 1 5 8 2 0 1 2 3 5 6 6 8 8 7 12 6 10 5 12 6 3 5 6 4 9 10 11 9 11 10 10 11 12 10
7 7 6 4 5 2 2 1 4 2 3 4 3 4 4 3 2 4 5 8 5 1 2 3 4 3 4 4 5 5 4 3 1 3 4 2 5 2 1 1 4 4 7 9 11 13 2 1 5 3 8 7 3 4 4 3 2 2 2 6 8 7 7 6 6 5 5 9 11 9 14 8 9 5 5 3 2 8 9 8 10 13 11 10 9 9 9 9
6 7 8 1 4 1 2 3 4 3 4 4 4 3 1 1 4 4 9 1 4 2 2 4 3 2 5 5 2 4 2 1 4 5 4 2 4 6 2 3 2 5 5 5 8 13 7 4 1 5 10 1 1 3 2 1 1 1 4 5 6 8 7 4 3 3 5 9 4 8 5 9 7 2 3 4 4 7 5 5 9 11 11 9 8 7 8 9
6 7 7 4 1 2 4 1 2 1 3 4 4 1 2 4 4 9 4 5 2 2 2 2 2 1 2 3 2 3 2 3 3 5 4 4 4 6 7 6 2 4 5 4 3 6 5 11 10 5 2 8 6 6 3 4 4 5 5 4 5 5 4 8 4 6 6 7 3 2 3 5 12 10 12 7 6 6 4 7 11 12 11 10 9 8 7 7
6 7 8 4 2 2 1 2 4 3 3 2 1 1 3 4 8 7 6 3 1 1 2 5 2 2 2 2 3 3 2 2 4 4 1 1 3 7 8 9 0 3 8 5 8 8 9 4 7 7 0 7 7 6 3 3 7 6 5 3 4 7 6 9 6 6 10 1 2 2 2 8 11 11 14 16 5 9 10 10 12 12 12 11 9 7 7 7
4 4 3 2 3 3 2 3 4 6 4 1 3 3 2 6 5 6 5 7 4 3 4 2 1 2 2 4 2 2 3 4 3 2 3 2 3 6 6 10 7 3 2 3 6 5 11 8 5 8 2 9 11 10 7 6 8 9 5 6 6 7 4 7 5 11 9 10 6 3 5 4 3 5 3 7 8 10 10 10 11 12 12 11 9 9 8 8
4 3 2 3 2 3 3 3 5 5 1 2 4 6 7 8 2 5 6 5 3 3 1 2 1 1 6 6 4 2 3 3 2 2 3 5 7 6 6 5 8 6 1 2 2 1 8 10 2 6 3 12 10 11 2 3 2 3 0 3 2 6 2 8 3 6 8 9 10 5 6 4 8 5 4 3 11 12 12 12 11 11 9 9 8 8 7 6
2 0 1 3 2 4 6 5 6 4 3 3 6 7 11 6 5 6 4 7 2 3 3 2 4 4 7 9 6 7 3 4 1 1 2 6 7 9 8 7 4 11 5 4 1 6 4 8 7 2 3 5 2 1 2 2 6 3 3 5 3 4 2 4 3 3 1 5 14 8 11 14 10 14 16 18 8 10 11 11 10 9 8 8 8 7 6 5
2 2 2 3 4 3 5 6 6 5 3 4 7 9 7 6 12 7 0 3 1 4 3 6 4 6 4 5 3 8 5 3 4 3 6 3 6 11 8 6 3 5 9 4 4 5 10 13 3 5 8 6 4 3 3 3 2 6 3 2 1 2 2 4 8 5 8 12 10 6 14 13 9 9 8 9 10 9 8 10 9 9 8 8 6 5 5 4
4 2 3 4 5 5 6 6 7 4 2 7 15 13 2 10 7 11 4 2 2 5 6 7 5 4 8 8 8 5 6 7 4 5 5 4 5 6 3 3 4 2 2 2 4 1 3 9 9 4 8 3 2 1 5 5 3 4 2 4 3 3 6 6 4 8 11 13 10 10 15 14 14 16 10 6 10 10 9 9 8 7 6 7 6 5 4 3
2 1 3 6 8 8 7 7 5 6 4 11 10 9 8 12 5 5 2 2 1 3 7 9 9 6 8 10 9 2 8 7 5 7 6 6 7 2 5 2 2 6 5 1 3 3 1 9 9 3 4 4 2 3 7 5 2 2 2 3 1 3 5 10 8 7 6 16 12 12 10 12 10 12 13 17 10 10 10 8 6 7 6 5 5 3 3 2
4 2 5 4 6 8 7 8 5 6 8 12 10 11 2 3 9 3 3 8 4 7 7 9 10 11 9 10 8 9 5 8 8 8 10 2 8 3 3 3 2 3 4 3 1 4 2 4 8 1 2 2 5 5 8 11 6 4 5 8 5 3 2 6 2 7 10 13 12 11 11 9 9 6 7 12 11 8 8 7 6 6 5 5 3 3 2 2
3 3 1 5 9 9 10 6 6 12 9 5 10 11 10 9 4 5 6 2 6 1 3 8 9 10 9 8 12 11 7 7 8 10 8 10 9 8 4 3 4 4 1 2 3 2 2 4 8 7 11 11 12 8 9 11 12 12 9 9 9 8 9 9 11 5 5 7 10 10 14 7 2 7 6 7 7 6 7 9 7 6 5 3 3 3 2 1
6 5 3 8 11 15 14 12 9 8 6 11 12 11 8 5 9 7 4 3 9 6 3 3 6 8 8 11 9 7 5 6 9 8 5 11 7 9 3 2 4 3 4 4 6 3 2 1 5 11 11 13 15 15 10 3 4 7 9 14 13 12 6 8 14 8 6 7 6 12 16 9 5 5 6 7 7 8 7 8 8 6 5 4 3 2 1 1
7 4 4 4 13 16 12 9 8 9 11 9 1 1 3 1 3 3 8 6 5 2 2 4 8 8 10 11 10 10 10 6 6 9 8 8 10 3 3 3 3 1 6 4 2 1 2 2 6 10 10 11 15 14 12 8 8 9 8 3 4 6 6 8 8 6 5 5 9 8 12 3 4 8 7 8 8 7 6 6 6 5 3 2 2 1 1 1
5 4 4 2 9 13 11 11 12 13 10 7 9 11 6 7 7 6 8 8 6 5 7 7 1 8 6 1 1 7 4 4 3 8 7 3 3 7 7 8 7 1 3 3 3 1 3 3 4 4 6 6 10 9 6 7 2 1 2 5 6 6 7 6 5 3 7 6 12 10 10 1 4 4 6 5 4 2 3 3 4 4 3 3 2 1 1 2
4 2 1 1 2 10 12 8 9 11 13 15 14 15 14 10 7 13 11 10 8 6 3 5 9 4 4 2 1 3 5 8 3 2 5 4 4 5 8 7 6 2 5 4 6 3 5 5 5 10 10 11 10 9 8 3 1 3 2 8 9 9 11 10 9 7 10 1 8 6 7 3 4 4 3 4 5 5 5 5 4 4 5 5 3 3 3 2
6 4 6 1 3 3 6 4 4 8 11 12 14 14 14 14 8 5 11 12 11 9 9 6 1 3 7 7 5 8 9 8 7 2 2 2 2 2 3 4 6 3 3 4 3 2 2 1 5 9 11 13 12 8 7 7 10 11 12 9 11 10 8 8 9 11 14 8 10 8 13 13 17 16 10 7 8 5 4 6 7 5 4 4 3 4 3 3
3 5 7 6 3 7 6 6 8 8 7 9 8 6 15 15 11 5 9 6 7 10 8 10 9 8 6 10 10 12 11 11 10 8 10 10 7 2 3 4 5 6 2 2 0 1 2 8 8 10 11 12 13 14 17 14 15 14 13 13 11 10 8 10 12 16 7 11 15 9 15 12 11 16 14 13 11 12 5 7 5 4 6 6 5 4 3 3
5 2 4 2 6 8 9 8 8 8 12 7 10 7 12 13 13 11 4 1 4 2 6 3 9 11 9 9 7 6 7 9 7 10 9 9 8 2 1 3 3 2 3 1 1 2 5 10 11 14 12 17 16 17 16 15 14 15 16 17 18 17 16 16 15 15 11 13 16 13 18 21 17 19 19 19 19 8 7 7 7 5 5 5 5 5 6 6
2 3 1 3 4 3 4 3 9 9 13 11 8 10 12 13 12 10 4 4 5 4 8 8 9 5 3 4 2 5 6 5 5 2 1 2 3 1 2 3 3 3 3 2 4 2 4 10 14 12 11 12 15 15 14 14 13 14 15 17 18 20 23 22 21 19 20 21 21 22 25 29 22 22 24 12 6 6 5 6 5 5 4 5 5 6 6 7
4 3 3 2 2 3 2 4 6 7 7 5 8 10 11 13 15 6 3 7 7 6 6 6 6 5 3 2 3 3 4 4 2 3 1 2 3 3 4 4 5 3 1 1 1 2 5 6 2 4 6 9 10 13 13 13 12 16 18 21 23 26 25 22 22 23 22 22 24 25 25 24 19 12 6 7 4 5 3 3 3 2 2 3 4 6 7 7
3 3 4 3 5 3 3 3 6 7 5 7 11 8 7 9 15 13 2 5 3 9 5 5 5 6 2 3 4 4 2 1 0 1 0 2 6 2 1 1 5 1 2 1 2 2 4 4 5 5 8 10 8 14 14 14 16 16 16 19 23 23 22 17 17 12 14 16 19 19 16 15 5 7 4 5 4 4 3 3 1 1 2 4 5 6 7 8
0 2 1 3 3 6 5 3 5 7 10 10 10 7 6 4 3 5 3 3 5 3 2 4 5 3 4 1 4 6 3 2 1 2 3 1 2 2 3 4 4 2 3 4 2 4 4 5 6 5 9 8 9 8 11 5 6 13 18 22 19 20 20 20 20 20 20 19 16 14 12 2 2 1 1 2 7 2 3 3 4 3 5 6 7 8 9 10
Wind_Direction
36 30 29 27 22 17 17 16 10 2 358 358 353 355 353 353 350 348 349 348 344 343 339 337 338 339 338 338 337 335 321 287 262 244 236 264 101 128 110 115 141 147 174 184 161 170 178 189 194 164 202 216 156 236 123 222 233 214 225 244 254 260 265 279 262 284 298 292 302 279 273 283 288 225 170 194 243 242 265 266 269 245 241 245 254 256 132 145
27 22 19 12 9 8 2 359 4 359 352 350 346 343 347 349 345 342 341 343 343 338 339 335 335 338 338 337 335 335 315 275 271 268 250 117 128 144 125 148 146 162 184 191 181 194 196 194 194 183 201 227 126 233 136 196 186 216 250 253 262 268 291 319 284 289 294 284 298 297 287 267 275 292 297 286 278 279 277 267 263 255 243 246 250 244 197 179
16 10 8 5 360 358 354 353 350 350 349 345 345 340 340 341 340 338 336 335 338 338 332 333 334 335 336 335 334 320 302 281 269 269 268 109 130 147 140 148 160 174 191 191 200 214 224 240 182 198 217 256 165 226 183 213 184 227 256 261 259 259 268 270 278 287 282 292 285 291 293 289 277 282 286 259 277 281 269 271 273 268 267 248 240 239 237 219
7 0 357 357 355 352 350 349 345 342 348 347 340 340 336 335 336 334 330 332 331 333 332 327 330 334 330 331 335 316 281 284 278 80 78 94 128 142 151 154 166 183 218 245 216 228 236 264 184 219 237 239 225 226 227 185 200 203 226 242 262 289 297 274 281 277 282 285 286 286 291 281 274 274 254 254 277 264 263 257 259 272 284 299 307 311 290 229
358 354 349 347 351 351 344 347 340 339 345 343 340 334 335 332 331 329 329 326 330 326 327 327 326 327 331 323 322 290 298 285 60 68 91 118 142 148 146 161 168 185 215 201 192 212 213 214 197 223 245 253 241 228 238 230 206 284 241 252 268 276 266 267 279 292 284 354 286 281 278 275 299 265 247 249 255 263 263 284 297 297 302 304 302 302 295 245
350 348 346 343 344 346 342 339 341 337 341 339 335 333 329 332 333 325 325 326 322 325 322 326 324 327 324 325 300 242 286 304 129 111 120 123 139 141 155 161 176 196 204 193 198 189 201 208 210 214 226 243 252 237 247 237 182 250 251 248 252 260 271 288 289 339 275 278 275 276 278 293 275 275 264 253 245 256 262 275 283 285 289 293 294 287 272 255
349 344 343 342 338 340 338 337 338 341 336 335 333 331 331 329 325 326 320 322 320 320 322 322 326 326 327 308 252 262 242 279 224 103 121 138 127 138 142 152 172 200 201 190 200 188 205 214 216 236 247 259 259 260 256 252 191 248 270 278 281 287 272 282 286 112 253 263 267 276 292 280 275 274 279 266 256 258 267 269 271 277 282 285 283 278 267 260
345 340 337 334 337 335 336 337 336 334 336 333 331 332 327 322 323 319 320 314 316 312 319 318 324 326 336 294 240 230 222 249 60 94 100 124 135 130 140 159 177 190 201 206 193 208 205 228 223 240 257 261 287 267 271 257 233 245 260 261 265 269 278 281 278 273 260 255 263 273 274 266 264 270 289 274 269 268 267 269 270 272 277 279 275 274 269 264
350 329 327 323 328 337 336 333 331 333 332 331 330 327 325 322 318 318 313 312 310 310 308 317 309 336 303 275 261 284 254 275 37 120 144 141 144 147 158 162 191 190 205 215 214 231 220 235 245 236 270 267 269 255 244 237 264 247 250 271 287 285 280 277 279 269 256 261 255 255 255 264 268 279 269 269 275 267 263 268 270 274 275 274 272 268 268 267
315 301 304 326 338 335 330 330 330 329 328 328 327 325 322 319 316 312 311 306 304 304 300 304 318 313 307 223 247 258 286 347 90 130 140 140 141 156 191 185 183 197 208 211 217 225 217 255 270 340 283 280 265 258 275 234 259 28 298 296 290 286 287 278 270 268 261 261 253 242 256 266 276 273 274 267 276 312 266 262 273 279 279 278 276 268 264 264
303 291 315 335 330 326 327 325 324 323 323 322 321 319 317 315 312 309 307 303 298 292 294 288 351 334 255 219 251 259 72 290 40 104 134 146 149 170 188 197 191 207 216 208 224 220 242 259 60 181 255 258 6 263 223 244 344 293 307 304 283 278 272 270 265 261 257 260 256 245 253 270 274 257 254 273 270 258 270 275 277 282 282 280 277 272 264 257
298 328 10 321 321 323 324 321 320 320 319 320 318 316 313 311 308 306 302 300 291 285 278 277 246 263 272 251 242 256 0 42 112 116 124 164 140 56 21 339 204 225 230 225 221 237 299 291 224 217 254 57 257 308 246 317 289 290 304 290 285 283 280 268 261 261 247 245 170 230 261 257 257 234 243 246 257 264 269 276 277 275 278 281 281 276 268 258
293 307 332 319 315 321 319 318 318 318 319 319 317 315 314 312 308 303 300 294 286 270 281 176 164 250 273 261 250 49 310 81 100 111 113 91 97 64 36 360 295 311 319 293 301 266 268 253 243 245 253 267 278 282 67 263 242 286 266 268 285 281 271 273 266 252 217 236 129 157 277 241 248 252 247 250 254 259 244 271 289 292 289 285 282 276 271 267
277 253 291 278 308 322 316 319 320 320 319 318 318 316 315 312 307 305 301 287 280 257 216 185 250 233 236 259 74 331 37 73 120 140 126 143 158 90 117 79 51 305 360 294 48 351 247 243 259 251 345 253 257 52 280 250 219 267 283 263 263 285 271 278 199 148 227 144 174 205 265 275 277 273 279 299 344 260 264 285 289 289 286 280 275 272 270 268
245 258 249 269 290 294 319 328 327 324 325 322 320 317 318 316 318 315 309 268 193 185 126 193 230 224 221 257 93 100 284 339 193 140 139 178 171 140 162 146 122 136 87 42 43 38 211 200 218 243 246 237 283 284 272 267 261 263 283 248 238 241 264 276 209 184 248 148 207 190 260 270 276 271 285 289 226 256 271 280 282 280 280 280 278 272 269 273
261 265 261 254 267 277 276 295 311 323 327 327 322 318 318 320 354 24 44 36 124 148 161 186 192 254 309 273 115 120 204 216 152 55 79 314 212 268 129 141 125 128 175 106 110 145 198 182 219 279 262 183 243 252 270 277 255 243 240 266 267 269 283 291 257 250 263 124 195 202 271 293 281 285 291 288 286 284 282 284 281 275 275 279 279 278 277 283
251 257 269 265 268 274 281 296 307 307 315 319 320 312 347 247 94 70 66 88 132 179 214 333 149 191 265 71 117 215 133 94 185 140 118 266 312 152 138 145 162 134 129 127 168 168 160 214 114 262 241 261 253 254 269 254 264 257 241 255 253 272 292 278 302 287 327 180 256 214 244 258 275 283 279 277 279 279 281 279 275 276 279 279 281 281 283 288
240 241 236 236 258 271 280 291 298 308 320 327 317 319 273 189 158 180 160 171 163 195 235 274 243 259 234 132 267 31 63 107 104 97 96 82 274 181 182 174 130 155 148 135 154 206 168 211 181 244 215 227 234 233 232 254 267 293 302 295 290 284 283 293 296 309 265 228 257 274 263 272 282 287 281 277 278 274 267 272 277 282 286 285 277 283 289 292
237 240 250 256 273 286 289 288 307 319 323 323 294 338 167 229 244 254 220 174 207 172 195 172 200 195 317 93 111 119 88 89 120 207 143 154 168 184 173 346 174 159 182 209 163 196 168 224 181 239 239 231 223 221 232 250 271 283 290 296 293 287 284 286 289 290 292 291 290 287 285 292 295 295 290 285 280 277 273 273 285 286 277 273 285 289 299 41
249 256 259 267 276 284 285 296 309 317 324 325 276 210 207 222 194 178 208 222 245 267 305 296 231 283 299 286 285 50 115 219 190 109 123 158 154 171 179 181 156 233 213 224 142 206 167 211 200 209 233 242 248 238 246 262 275 285 287 277 275 277 278 278 274 283 289 293 279 283 288 294 298 294 288 281 279 277 277 276 272 270 271 276 282 64 62 355
240 243 252 259 267 269 278 294 305 313 314 296 286 263 325 0 314 296 349 274 260 255 260 260 249 259 263 90 164 184 286 190 243 146 142 157 223 177 173 177 176 214 213 230 174 91 207 229 229 232 245 256 265 286 292 286 279 280 282 280 277 274 281 279 288 297 293 293 288 288 288 289 295 296 285 278 280 281 272 267 262 261 277 331 84 53 326 30
233 238 245 251 257 267 278 286 308 310 300 270 299 5 76 21 355 353 293 288 251 242 237 247 269 257 256 266 86 354 69 287 226 136 142 210 166 221 158 205 195 245 146 139 136 185 208 228 235 236 245 257 269 277 272 275 277 273 269 275 282 281 284 286 282 291 328 340 286 298 297 296 287 275 276 281 273 253 261 260 260 279 9 65 328 334 72 106
235 240 244 248 254 268 279 289 296 310 300 289 355 351 47 31 357 349 294 277 267 245 239 244 233 241 256 235 161 125 261 237 252 156 167 206 151 249 172 199 225 238 183 197 227 240 252 242 237 239 251 258 262 257 265 267 258 259 262 264 269 288 290 298 301 106 214 251 298 304 299 290 272 265 264 269 225 227 252 260 291 48 52 16 56 80 99 77
229 234 238 239 250 257 272 284 291 274 308 335 342 32 37 7 293 249 246 260 310 244 216 216 277 270 273 279 77 251 219 252 225 222 143 193 210 168 214 227 246 239 232 223 233 244 252 282 71 261 249 252 262 266 264 260 262 253 252 261 273 272 278 290 305 311 309 294 279 304 287 286 279 141 181 201 237 247 266 262 85 77 79 84 82 66 61 62
222 227 228 223 245 252 258 302 260 67 33 246 132 66 81 349 320 271 277 267 206 236 83 179 245 216 98 117 189 221 224 244 202 55 159 275 192 136 241 260 240 245 239 242 253 253 260 266 119 211 217 246 253 259 251 254 272 271 257 257 264 276 288 296 307 318 309 299 80 343 328 319 111 185 314 317 284 287 273 124 109 107 105 97 86 75 65 58
200 216 227 211 203 225 167 257 106 130 273 329 76 123 116 137 281 275 283 280 284 132 217 173 211 145 343 148 142 231 34 211 56 56 10 27 340 287 60 223 211 279 337 240 261 273 288 76 168 231 242 243 244 256 260 257 262 268 282 352 299 299 299 298 303 322 299 305 91 36 306 292 260 277 272 271 263 250 267 84 95 104 101 83 71 65 54 47
112 148 202 227 212 189 233 268 79 206 254 136 130 132 139 171 259 239 275 234 267 108 146 26 243 111 246 61 262 178 211 110 125 110 186 39 265 118 267 207 137 212 277 339 280 236 206 222 135 223 227 234 245 247 246 230 250 266 43 335 320 303 300 310 314 277 274 284 278 252 214 270 293 282 272 195 250 256 90 92 103 102 93 79 74 68 54 47
58 57 40 229 216 204 301 349 212 241 15 108 127 137 136 152 191 212 243 299 269 121 121 153 35 52 284 108 295 281 27 321 198 111 22 68 276 158 232 260 269 247 172 199 244 62 189 173 197 186 201 216 228 240 38 199 228 304 46 7 315 311 301 298 284 287 286 305 296 175 206 260 262 306 179 228 244 236 95 106 109 102 92 85 82 81 78 66
34 27 360 305 235 242 306 269 267 258 102 125 141 128 119 150 237 292 307 270 38 248 357 101 324 213 127 175 185 113 200 147 331 85 118 164 268 320 216 258 285 278 214 213 260 279 219 103 206 206 198 232 239 259 68 179 243 92 69 142 232 246 250 265 273 277 287 283 275 234 193 254 285 305 250 203 269 117 108 105 98 80 71 76 87 85 80 74
22 16 357 162 116 161 242 53 247 70 126 116 125 121 110 206 213 211 182 233 49 215 143 96 206 115 178 187 181 168 219 130 64 114 180 208 139 220 237 53 286 257 245 238 249 257 298 115 25 273 226 255 59 56 13 19 6 99 264 289 272 240 241 227 238 258 277 258 268 257 198 221 293 328 295 257 211 132 131 139 128 115 97 80 70 74 76 71
13 4 358 266 188 168 173 232 204 119 114 94 113 132 197 211 232 227 228 213 336 178 104 178 165 169 190 226 203 140 249 160 155 169 161 194 175 211 227 216 212 252 252 250 247 249 227 182 182 228 241 215 174 118 86 156 40 260 275 291 304 275 202 239 232 225 261 276 39 38 179 217 250 216 75 83 112 139 161 151 137 110 103 101 89 68 63 64
6 352 350 329 350 326 221 303 56 80 87 116 134 179 216 230 196 214 212 98 232 151 211 110 82 213 191 45 310 159 173 171 182 197 233 180 208 189 195 260 192 288 271 252 267 120 217 217 216 188 157 220 201 250 160 177 170 222 245 252 276 295 295 276 229 241 242 276 101 58 35 275 241 248 277 282 143 114 93 118 135 121 110 102 89 79 67 62
4 349 332 309 308 215 278 127 138 107 110 161 200 259 201 208 241 196 230 196 276 25 159 23 84 179 161 191 223 133 63 293 133 214 221 178 259 243 234 235 88 244 282 321 312 298 285 102 186 188 101 206 203 206 190 217 192 198 216 224 255 285 275 274 276 269 269 139 134 106 98 264 268 271 242 242 159 112 108 105 118 121 119 113 104 85 72 64
353 335 334 1 317 316 74 134 126 133 136 229 221 132 166 224 224 4 203 200 229 67 72 104 118 109 230 257 340 141 275 171 161 170 194 215 212 282 254 212 193 197 199 293 275 295 298 278 191 168 204 152 195 224 245 308 162 202 218 212 251 256 262 280 282 277 286 295 321 185 306 244 308 339 353 230 93 106 97 97 96 98 101 102 100 90 75 66
345 299 274 278 246 246 192 141 140 160 138 222 205 196 218 219 120 173 209 210 216 106 119 40 116 16 270 250 215 186 208 296 102 136 221 218 253 256 268 285 179 219 97 311 231 258 256 265 302 150 8 156 191 218 262 90 241 165 13 8 267 241 213 253 289 289 295 300 286 233 221 292 267 23 2 92 106 106 111 101 103 97 93 93 83 72 68 60
26 26 242 237 209 214 174 158 144 142 149 208 203 220 224 206 225 182 237 219 186 216 120 179 131 247 264 279 222 204 103 216 116 163 247 227 259 270 274 274 211 175 174 204 276 287 253 271 94 177 76 241 216 72 204 182 257 121 165 215 234 24 232 281 285 223 283 274 259 266 270 263 274 263 250 236 110 99 103 106 102 99 95 89 85 79 68 55
129 136 213 206 234 183 163 153 145 130 146 227 227 238 223 237 239 244 258 190 194 117 112 244 224 184 240 236 229 177 184 163 224 210 246 137 264 226 235 241 109 190 207 234 268 195 271 279 255 149 255 199 43 358 337 13 354 99 232 202 66 267 8 258 269 259 242 255 269 264 270 280 279 288 81 98 114 125 119 112 104 104 102 86 75 80 84 69
147 187 265 229 218 155 163 160 143 113 129 229 235 242 250 243 218 235 107 117 73 189 225 201 234 244 263 264 270 204 162 201 156 169 258 195 275 100 235 258 132 221 281 43 256 348 343 280 274 265 270 52 34 179 256 210 284 266 293 359 281 253 256 201 246 255 259 256 269 236 262 264 267 268 267 198 156 147 127 122 122 113 106 110 109 105 96 88
137 159 263 211 159 164 151 160 154 132 166 235 236 247 240 243 275 229 156 106 49 132 220 231 255 233 249 260 271 150 167 211 214 228 259 223 245 169 274 6 108 63 29 340 228 307 128 273 275 72 27 81 131 186 244 201 123 121 329 268 202 330 258 268 257 278 272 272 272 262 242 256 253 271 271 279 170 137 138 133 116 114 111 110 113 110 99 91
170 149 238 106 136 138 147 155 149 161 195 227 228 234 263 288 234 173 157 194 201 200 225 249 226 250 240 253 254 260 221 233 243 252 245 192 254 241 77 51 25 64 55 36 68 24 300 1 274 302 125 256 245 195 237 264 238 198 223 246 223 216 348 302 289 234 249 263 254 273 260 256 270 359 26 69 112 137 139 127 111 101 95 93 97 106 92 72
231 262 175 118 152 148 144 160 170 194 204 243 243 244 236 237 210 220 214 189 237 36 294 228 230 230 241 254 247 239 253 244 241 244 240 259 248 258 71 26 17 72 292 197 202 169 252 202 253 281 281 261 263 266 279 273 279 274 258 248 256 262 250 239 251 208 240 240 258 257 258 251 296 21 40 70 78 79 97 122 116 115 110 101 80 58 52 53
186 217 157 151 159 164 157 168 207 192 209 218 223 210 235 223 246 230 174 209 223 223 63 263 258 267 251 252 258 265 247 246 247 248 244 243 232 245 106 325 38 20 348 302 298 21 321 302 278 268 259 268 282 288 297 278 271 272 271 269 266 269 254 252 268 260 276 257 275 258 269 252 66 13 44 58 67 77 84 101 109 116 121 123 137 140 133 111
212 223 28 228 169 178 170 205 193 195 216 233 35 280 197 6 229 269 234 203 208 191 228 207 222 230 237 246 249 256 250 256 235 250 246 239 251 305 56 33 33 118 343 293 245 140 95 253 253 256 261 276 283 285 276 253 245 245 237 277 350 283 315 305 292 317 288 298 288 271 259 294 56 41 42 44 47 58 68 82 102 116 123 127 113 58 42 322
204 151 148 30 198 192 186 198 206 209 218 216 224 236 199 229 216 200 218 213 205 199 216 226 269 235 265 22 117 246 252 261 252 240 247 269 273 75 19 30 3 36 297 340 308 116 273 209 247 282 295 282 271 267 235 57 4 29 340 332 323 292 281 282 296 228 249 215 252 272 261 279 360 49 71 70 101 125 140 135 145 154 163 165 168 202 258 262
137 86 83 100 197 213 210 213 223 213 217 222 226 231 232 233 227 236 224 215 212 212 159 221 233 224 202 198 251 243 237 248 267 285 235 264 269 86 55 35 10 56 39 29 44 17 257 279 285 279 277 276 276 268 277 280 77 311 234 264 278 278 283 302 285 289 281 157 245 252 272 295 139 185 170 189 196 188 183 177 177 180 173 175 177 207 222 256
192 174 171 97 214 258 256 284 310 240 223 222 230 234 236 238 217 178 225 241 229 231 234 245 112 219 243 233 226 240 239 225 219 241 208 201 167 69 84 64 63 86 35 63 13 334 270 271 250 255 262 264 269 290 319 317 299 290 297 292 282 274 273 257 270 264 261 281 275 263 271 281 291 293 259 228 196 214 187 190 180 165 168 172 184 197 208 224
297 212 158 185 126 239 235 227 231 237 233 217 228 204 233 232 237 216 193 230 220 229 234 238 237 233 228 234 244 255 250 249 234 239 245 257 265 83 99 87 73 52 84 23 92 120 234 267 250 248 242 254 268 276 281 283 279 279 282 280 278 270 266 263 253 259 302 316 275 256 276 286 277 288 291 292 289 280 249 169 175 181 173 184 195 201 218 246
212 203 169 138 207 190 204 217 204 221 231 250 239 230 240 237 228 228 151 232 110 188 211 236 235 234 246 242 231 239 241 245 239 238 248 254 261 219 179 97 96 101 132 153 207 241 287 275 275 278 275 273 275 277 281 283 284 283 280 278 277 278 272 259 257 270 278 260 273 298 294 286 281 280 285 282 290 313 116 162 161 169 169 178 199 212 228 232
330 344 64 352 191 221 215 61 184 199 223 227 243 245 242 232 232 235 229 168 197 211 230 232 231 183 122 75 177 237 244 250 253 237 103 57 96 15 302 245 157 134 187 179 198 220 264 262 268 278 284 279 275 273 273 275 278 282 277 275 274 271 267 268 274 276 270 270 276 277 276 276 282 280 282 303 59 75 93 109 133 152 184 186 223 233 242 246
190 211 165 61 13 75 109 134 162 183 206 190 224 234 242 239 238 195 119 212 215 208 209 247 195 98 90 101 174 203 235 290 352 301 338 63 291 270 268 246 273 121 106 209 297 290 256 264 310 64 284 270 264 266 269 273 275 267 265 266 264 264 265 269 275 272 275 272 264 265 268 270 268 286 67 77 62 93 93 128 112 152 167 226 244 265 263 260
330 6 338 165 190 167 113 159 179 184 196 203 220 228 238 233 241 243 200 29 264 238 210 237 116 132 127 181 217 233 269 48 318 281 52 227 261 12 107 344 80 306 339 147 246 269 279 270 288 289 278 262 252 267 272 276 275 273 273 263 258 261 268 265 261 264 263 264 266 270 267 270 322 73 54 87 82 65 49 27 20 7 341 315 300 301 301 291
53 319 277 295 227 159 154 142 194 195 221 213 213 214 228 181 78 143 170 129 67 29 359 171 168 224 223 191 251 266 296 38 54 80 106 66 339 246 256 245 258 249 268 239 280 270 254 274 280 277 275 253 261 272 285 308 295 274 247 243 249 254 253 258 256 256 253 263 269 263 272 359 88 317 41 100 77 15 23 352 345 329 319 314 300 296 297 295